Location: *
(42.0175°N, 9.4056°E)
Time: 04:08:48
(UTC+00:00)

Cosmos 2315 Rocket - Pass Details

Date: 25 August 2019
Orbit: 965 x 1003 km, 82.9° (Epoch: 19 September)

Event Time Altitude Azimuth Distance (km) Brightness Sun altitude
Exits shadow 20:35:12 16° 201° (SSW) 2,355 5.8 -24.6°
Maximum altitude 20:40:21 63° 280° (W) 1,103 4.4 -25.3°
Drops below altitude 10° 20:46:38 10° 1° (N) 2,760 6.9 -26.1°
Sets 20:49:12 0° 5° (N) 3,707 7.6 -26.5°
